Location: Eyeline Observatory
(43.2182°N, 78.8632°W)
Time: 15:33:35
(UTC-04:00)

ISS - Pass Details

Date: 15 October 2017
Orbit: 401 x 408 km, 51.6° (Epoch: 22 October)

Event Time Altitude Azimuth Distance (km) Brightness Sun altitude
Rises 20:09:51 0° 289° (WNW) 2,324 1.5 -18.6°
Reaches altitude 10° 20:12:31 10° 265° (W) 1,461 0.2 -19.1°
Maximum altitude 20:14:32 15° 227° (SW) 1,179 -1.0 -19.4°
Drops below altitude 10° 20:16:32 10° 189° (S) 1,457 -1.0 -19.8°
Enters shadow 20:16:57 - 184° (S) 1,565 -0.9 -19.9°
